Flag for U.S.A. Weather past 2 weeks in Baltimore, Maryland, U.S.A.

Now
75 °F

Passing clouds.


Feels Like: 78 °F
Forecast: 54 / 69 °F
Wind: 16 mph from Northwest

Location: Baltimore-Washington International Airport

Current Time: Sep 22, 2014 at 12:36:32 AM

Latest Report: Sep 21, 2014 at 11:54 PM


Visibility: 10 mi

Pressure: 29.72 "Hg

Humidity: 45%

Dew point: 52 °F

Location of BaltimoreLocation

Historic Weather in Baltimore — Graph

°F

Baltimore temperature yesterday

Maximum temperature yesterday: 82 °F (at 2:54 PM)
Minimum temperature yesterday: 57 °F (at 3:54 AM)
Average temperature yesterday: 70 °F

Past Weeks' High & Low Weather Summary

 TemperatureHumidityPressure
High88 °F (Sep 11, 1:54 PM)100% (Sep 21, 7:54 AM)30.32 "Hg (Sep 21, 7:54 AM)
Low50 °F (Sep 14, 5:54 AM)35% (Sep 7, 3:54 PM)29.64 "Hg (Sep 21, 4:54 PM)
Average67 °F72%30.08 "Hg
* Reported Sep 6 10:54 PM — Sep 21 10:54 PM, Baltimore, Weather by CustomWeather, © 2014

Note: Actual official high and low records may vary slightly from our data, if they occured in-between our weather recording intervals... More about our weather records

Advertising

Baltimore weather history for previous 24 hours

 ConditionsComfort  
Time TempWeatherWind HumidityBarometerVisibility
10:54 PM
Sep 21
74 °FPassing clouds.8 mph67%29.68 "Hg10 mi
9:54 PM72 °FPassing clouds.6 mph76%29.67 "Hg10 mi
8:54 PM71 °FPassing clouds.3 mph84%29.65 "Hg10 mi
7:54 PM73 °FScattered clouds.3 mph79%29.65 "Hg10 mi
6:54 PM76 °FPartly sunny.5 mph72%29.65 "Hg10 mi
5:54 PM78 °FScattered clouds.7 mph66%29.64 "Hg10 mi
4:54 PM81 °FScattered clouds.9 mph58%29.64 "Hg10 mi
3:54 PM82 °FPartly sunny.6 mph53%29.66 "Hg10 mi
2:54 PM82 °FBroken clouds.6 mph49%29.68 "Hg10 mi
1:54 PM80 °FPartly sunny.No wind52%29.73 "Hg10 mi
12:54 PM78 °FPartly sunny.No wind50%29.77 "Hg10 mi
11:54 AM75 °FBroken clouds.No wind66%29.81 "Hg9 mi
10:54 AM73 °FBroken clouds.5 mph69%29.84 "Hg7 mi
9:54 AM67 °FFog.6 mph87%29.86 "Hg4 mi
8:54 AM63 °FFog.No wind97%29.87 "Hg2 mi
7:54 AM61 °FFog.No wind100%29.89 "Hg1 mi
7:01 AM59 °FFog.5 mph94%29.90 "Hg1 mi
5:54 AM58 °FFog.No wind93%29.90 "Hg5 mi
4:54 AM58 °FPassing clouds.No wind93%29.91 "Hg7 mi
3:54 AM57 °FPassing clouds.No wind96%29.93 "Hg9 mi
2:54 AM59 °FPassing clouds.No wind96%29.95 "Hg9 mi
1:54 AM61 °FPassing clouds.No wind93%29.99 "Hg10 mi
12:54 AM62 °FPassing clouds.No wind90%30.03 "Hg10 mi
Weather by CustomWeather, © 2014

See weather overviewHow to use our weather pages